Flag for Canada Weather past 2 weeks in Iqaluit, Nunavut Territory, Canada

Now
-35 °F

Snow flurries. Overcast.


Feels Like: -47 °F
Forecast: N/A
Wind: 3 mph from Southeast

Location: Iqaluit

Current Time: Jan 26, 2015 at 6:01:52 PM

Latest Report: Jan 26, 2015 at 5:00 PM


Visibility: 2 mi

Pressure: 29.70 "Hg

Humidity: 66%

Dew point: -42 °F

Location of IqaluitLocation

Historic Weather in Iqaluit — Graph

°F

Iqaluit temperature yesterday

Maximum temperature yesterday: -31 °F (at 2:00 AM)
Minimum temperature yesterday: -40 °F (at 11:00 PM)
Average temperature yesterday: -34 °F

Past Weeks' High & Low Weather Summary

 TemperatureHumidityPressure
High-13 °F (Jan 13, 11:00 AM)75% (Jan 14, 4:00 PM)30.25 "Hg (Jan 14, 4:00 PM)
Low-45 °F (Jan 26, 4:00 AM)52% (Jan 26, 1:00 AM)29.47 "Hg (Jan 18, 1:00 AM)
Average-27 °F64%29.80 "Hg
* Reported Jan 11 5:00 PM — Jan 26 5:00 PM, Iqaluit, Weather by CustomWeather, © 2014

Note: Actual official high and low records may vary slightly from our data, if they occured in-between our weather recording intervals... More about our weather records

Advertising

Iqaluit weather history for previous 24 hours

 ConditionsComfort  
Time TempWeatherWind HumidityBarometerVisibility
5:00 PM
Jan 26
-35 °FSnow flurries. Overcast.3 mph66%29.70 "Hg2 mi
4:00 PM-35 °FSnow flurries. Partly cloudy.No wind59%29.69 "Hg6 mi
3:00 PM-35 °FSnow flurries. Broken clouds.3 mph59%29.68 "Hg12 mi
2:00 PM-35 °FSnow flurries. Scattered clouds.9 mph53%29.67 "Hg25 mi
1:00 PM-36 °FSnow flurries. Passing clouds.10 mph59%29.65 "Hg25 mi
12:00 PM-35 °FSnow flurries. Low level haze.14 mph59%29.65 "Hg10 mi
11:00 AM-35 °FSnow flurries. Sunny.17 mph59%29.65 "Hg4 mi
10:00 AM-38 °FSnow flurries. Sunny.25 mph58%29.65 "Hg3 mi
9:00 AM-42 °FSnow flurries. Sunny.23 mph58%29.66 "Hg3 mi
8:00 AM-42 °FSnow flurries. Clear.20 mph58%29.65 "Hg2 mi
7:00 AM-44 °FSnow flurries. Clear.25 mph64%29.65 "Hg2 mi
6:00 AM-44 °FSnow flurries. Clear.26 mph57%29.65 "Hg2 mi
5:00 AM-45 °FSnow flurries. Clear.25 mph57%29.62 "Hg2 mi
4:00 AM-45 °FSnow flurries. Clear.25 mph57%29.61 "Hg1 mi
3:00 AM-44 °FSnow flurries. Clear.36 mph57%29.61 "Hg1 mi
2:00 AM-42 °FSnow flurries. Clear.13 mph58%29.63 "Hg2 mi
1:00 AM-38 °FSnow flurries. Clear.25 mph52%29.64 "Hg4 mi
12:00 AM-40 °FSnow flurries. Clear.25 mph58%29.64 "Hg2 mi
11:00 PM
Jan 25
-40 °FSnow flurries. Clear.24 mph65%29.67 "Hg4 mi
10:00 PM-38 °FSnow flurries. Clear.21 mph58%29.69 "Hg12 mi
9:00 PM-36 °FSnow flurries. Clear.24 mph59%29.69 "Hg15 mi
8:00 PM-36 °FSnow flurries. Clear.22 mph59%29.69 "Hg15 mi
7:00 PM-35 °FSnow flurries. Clear.18 mph59%29.71 "Hg15 mi
6:00 PM-35 °FSnow flurries. Clear.14 mph59%29.72 "Hg15 mi
Weather by CustomWeather, © 2014

See weather overviewHow to use our weather pages